Location: Helion Bumpstead
(52.0500°N, 0.4000°E)
Time: 04:21:50
(UTC+00:00)

ARGOS - Visible Passes

Search period start: 19 February 2026 00:00
Search period end: 01 March 2026 00:00
Orbit: 818 x 833 km, 98.5° (Epoch: 18 February)

Date Brightness Start Highest point End Pass type
(mag) Time Alt. Az. Time Alt. Az. Time Alt. Az.
19 Feb 4.8 02:57:27 10° NNE 03:01:39 29° E 03:01:39 29° E visible
19 Feb 3.2 04:37:24 10° N 04:42:38 52° WNW 04:43:08 51° W visible
19 Feb 5.0 06:19:39 10° NNW 06:21:44 12° NW 06:23:49 10° WNW visible
20 Feb 5.3 02:38:38 10° NE 02:42:21 21° E 02:42:21 21° E visible
20 Feb 3.0 04:18:06 10° NNE 04:23:29 72° WNW 04:23:50 69° W visible
20 Feb 4.7 05:59:40 10° NNW 06:02:51 16° NW 06:05:19 12° W visible
21 Feb 5.6 02:20:07 10° NE 02:23:04 15° E 02:23:04 15° E visible
21 Feb 3.1 03:58:52 10° NNE 04:04:18 84° ESE 04:04:33 80° SSE visible
21 Feb 4.4 05:39:59 10° N 05:43:55 21° NW 05:46:02 17° W visible
22 Feb 5.9 02:02:38 10° ENE 02:03:42 11° E 02:03:47 11° E visible
22 Feb 3.5 03:39:41 10° NNE 03:45:03 61° ESE 03:45:16 61° ESE visible
22 Feb 4.1 05:20:27 10° N 05:24:56 27° WNW 05:26:45 23° W visible
23 Feb 4.0 03:20:35 10° NNE 03:25:45 44° E 03:25:59 44° ESE visible
23 Feb 3.7 05:01:01 10° N 05:05:54 36° WNW 05:07:28 30° W visible
24 Feb 4.6 03:01:34 10° NNE 03:06:24 32° E 03:06:43 32° E visible
24 Feb 3.4 04:41:38 10° N 04:46:49 49° WNW 04:48:11 40° WSW visible
25 Feb 5.1 02:42:43 10° NE 02:47:00 23° E 02:47:25 23° E visible
25 Feb 3.1 04:22:19 10° N 04:27:41 66° WNW 04:28:54 51° SW visible
25 Feb 4.8 06:04:00 10° NNW 06:06:59 15° NW 06:09:57 10° W visible
26 Feb 5.5 02:24:06 10° NE 02:27:32 17° E 02:28:09 16° E visible
26 Feb 3.0 04:03:03 10° NNE 04:08:30 90° NW 04:09:37 58° SSW visible
26 Feb 4.5 05:44:17 10° N 05:48:04 20° NW 05:51:06 13° W visible
27 Feb 5.8 02:06:07 10° ENE 02:08:00 12° E 02:08:52 11° E visible
27 Feb 3.4 03:43:52 10° NNE 03:49:16 67° ESE 03:50:21 53° SSE visible
27 Feb 4.2 05:24:43 10° N 05:29:05 26° WNW 05:31:50 17° W visible
28 Feb 3.9 03:24:44 10° NNE 03:29:59 48° E 03:31:04 42° SE visible
28 Feb 3.9 05:05:15 10° N 05:10:04 34° WNW 05:12:33 23° WSW visible
